This is the latest recevied weather packets stored in our database for station/object W4JCW. If no packets are shown the sender has not sent any weather packets the latest 10 day(s).
| Time | Temp. | Humidity | Pressure | Rain* | Wind** | Luminosity | Snow |
|---|---|---|---|---|---|---|---|
| 1777484481 | 25.56° C | 60% | 1010 hPa | 0 mm | - | 396 W/m² | - |
| 1777484180 | 25.56° C | 60% | 1010.4 hPa | 0 mm | - | 293 W/m² | - |
| 1777483880 | 25° C | 62% | 1010.4 hPa | 0 mm | - | 327 W/m² | - |
| 1777483577 | 25° C | 61% | 1010.4 hPa | 0 mm | - | 191 W/m² | - |
| 1777483277 | 25° C | 62% | 1010.3 hPa | 0 mm | - | 217 W/m² | - |
| 1777482973 | 25° C | 62% | 1010.5 hPa | 0 mm | - | 261 W/m² | - |
| 1777482669 | 25° C | 66% | 1010.4 hPa | 0 mm | - | 540 W/m² | - |
| 1777482366 | 24.44° C | 64% | 1010.8 hPa | 0 mm | - | 285 W/m² | - |
| 1777482064 | 25° C | 63% | 1010.7 hPa | 0 mm | - | 352 W/m² | - |
| 1777481762 | 25° C | 63% | 1010.8 hPa | 0 mm | - | 258 W/m² | - |
| 1777481459 | 24.44° C | 64% | 1010.8 hPa | 0 mm | - | 818 W/m² | - |
| 1777481154 | 24.44° C | 67% | 1010.9 hPa | 0 mm | - | 285 W/m² | - |
| 1777480851 | 23.89° C | 68% | 1010.9 hPa | 0 mm | - | 154 W/m² | - |
| 1777480548 | 23.89° C | 68% | 1011 hPa | 0 mm | - | 251 W/m² | - |
| 1777480245 | 23.89° C | 68% | 1010.9 hPa | 0 mm | - | 243 W/m² | - |
| 1777479941 | 23.89° C | 68% | 1011.2 hPa | 0 mm | - | 261 W/m² | - |
| 1777479638 | 23.89° C | 69% | 1011.1 hPa | 0 mm | - | 430 W/m² | - |
| 1777479336 | 23.89° C | 69% | 1011.3 hPa | 0 mm | - | 478 W/m² | - |
| 1777479032 | 23.33° C | 71% | 1011.6 hPa | 0 mm | - | 405 W/m² | - |
| 1777478729 | 22.78° C | 72% | 1011.4 hPa | 0 mm | - | 196 W/m² | - |
| 1777478425 | 22.78° C | 72% | 1011.8 hPa | 0 mm | - | 155 W/m² | - |
| 1777478122 | 22.78° C | 71% | 1011.7 hPa | 0 mm | - | 144 W/m² | - |
| 1777477819 | 22.78° C | 70% | 1012 hPa | 0 mm | - | 161 W/m² | - |
| 1777477514 | 23.33° C | 69% | 1012.1 hPa | 0 mm | - | 278 W/m² | - |
| 1777477211 | 23.33° C | 70% | 1011.7 hPa | 0 mm | - | 339 W/m² | - |
* Rain latest hour (hover to see other rain measurements)
** Current wind speed in m/s (hover to see current wind gust speed)